Regional Weather Roundup
Issued by NWS

Home | Current Version | Previous Version | Graphics & Text | Print | Product List | Glossary On
Versions: 1 2 3 4 5 6 7 8 9 10 11 12 13 14 15 16 17 18 19 20 21 22 23 24 25 26 27 28 29 30 31 32 33 34 35 36 37 38 39 40 41 42 43 44 45 46 47 48 49 50
000
ASUS43 KLSX 242007
RWRMO

WEATHER SUMMARY FOR MISSOURI
NATIONAL WEATHER SERVICE SPRINGFIELD MO
300 PM CDT THU JUL 24 2014

NOTE: "FAIR" INDICATES FEW OR NO CLOUDS BELOW 12,000 FEET WITH NO
       SIGNIFICANT WEATHER AND/OR OBSTRUCTIONS TO VISIBILITY.
       CURRENT SKY AND/OR WEATHER CONDITIONS ARE NOT AVAILABLE FOR
       CHILLICOTHE AND FARMINGTON.

MOZ001>031-035>038-043-044-053-054-242100-
...NORTHERN AND WESTERN MISSOURI...

CITY           SKY/WX    TMP DP  RH WIND       PRES   REMARKS
KANSAS CTY INT PTSUNNY   82  60  47 S13       30.08F
KANSAS C DTWN  SUNNY     83  59  44 SE10G17   30.06F
LEE`S SUMMIT   SUNNY     81  59  47 SE8       30.10F
ST JOSEPH      MOSUNNY   81  61  50 S18       30.05F
CHILLICOTHE      N/A     79  58  48 VRB7      30.09F
KIRKSVILLE     CLOUDY    76  60  57 SE8       30.11F

$$
MOZ066>068-077>081-088>096-101>105-242100-
...SOUTHWEST MISSOURI...

CITY           SKY/WX    TMP DP  RH WIND       PRES   REMARKS
SPRINGFIELD    SUNNY     82  55  39 E8        30.10F
JOPLIN         SUNNY     86  62  44 VRB5      30.07F

$$
MOZ032>034-039>042-045>050-055>058-069>072-242100-
...CENTRAL MISSOURI...

CITY           SKY/WX    TMP DP  RH WIND       PRES   REMARKS
COLUMBIA       PTSUNNY   81  57  43 NE9       30.12F
JEFFERSON CITY PTSUNNY   79  55  43 VRB3      30.10F
ROLLA          MOSUNNY   81  50  33 N9G16     30.11F
SEDALIA        MOSUNNY   82  57  42 E10       30.12F
WHITEMAN AFB   SUNNY     81  45  27 E7        30.10F
OSAGE BEACH    SUNNY     82  54  36 NE10      30.10F

$$
MOZ051-052-059>065-242100-
...EAST CENTRAL MISSOURI...

CITY           SKY/WX    TMP DP  RH WIND       PRES   REMARKS
ST LOUIS INTL  PTSUNNY   82  54  37 NE13      30.10F
SPIRIT OF STL  SUNNY     81  51  35 N9G18     30.09F
ST CHARLES     SUNNY     80  53  39 N14       30.10F

$$
MOZ072>076-082>087-097>100-106>115-242100-
...SOUTH CENTRAL AND SOUTHEAST MISSOURI...

CITY           SKY/WX    TMP DP  RH WIND       PRES   REMARKS
CAPE GIRARDEAU MOSUNNY   80  62  54 NE9       30.06F
FARMINGTON     SUNNY     77  54  44 NE10      30.12F
POPLAR BLUFF   SUNNY     82  50  32 N8        30.06F
WEST PLAINS    SUNNY     81  56  42 N7        30.10F

$$



USA.gov is the U.S. government's official web portal to all federal, state and local government web resources and services.